Simultaneous Nadir Overpasses (SNOs) Predictions

Prediction of SNOs between GOES-17 and METOP-C Satellite Orbit:

Table of predicted SNOs for the next 14.0 days since TLE Epoch: 6/8/2024
Index Date Time (GOES-17) GOES-17 Lat,Lon METOP-C Lat,Lon Distance(km) Time Diff (sec)
1 06/09/2024 04:31:05 0.01,-104.70 -0.03,-104.92 24.44 80
2 06/11/2024 16:29:18 -0.03,-104.71 -0.10,-104.49 26.34 80
3 06/13/2024 04:48:19 0.04,-104.70 -0.93,-109.08 498.27 80
4 06/14/2024 04:24:59 0.04,-104.71 0.17,-104.08 71.22 80
5 06/15/2024 16:43:51 -0.04,-104.72 0.83,-108.64 446.31 80
6 06/16/2024 16:25:51 -0.04,-104.72 -0.28,-103.64 123.31 80
7 06/18/2024 04:44:52 0.04,-104.72 -0.73,-108.24 400.93 80
8 06/19/2024 04:21:33 0.04,-104.72 0.38,-103.24 168.52 80
9 06/20/2024 16:43:03 -0.04,-104.72 0.66,-107.79 349.40 80
10 06/21/2024 16:19:44 -0.04,-104.72 -0.46,-102.79 219.81 80
